GW5651 Weather Reports


time (UTC)temp
C
wind
direction
speed
KPH
gust
KPH
rain 1hr
cm
rain 24hr
cm
rain mn
cm
humidity
%
barometer
mb
20260503200529 18 275 6.4 6.4 0.00 0.00 0.00 44 1005.3
20260503190529 18 236 0.0 1.6 0.00 0.00 0.00 42 1006.1
20260503183529 18 211 0.0 1.6 0.00 0.00 0.00 46 1006.5
20260503180529 17 209 0.0 9.7 0.00 0.00 0.00 51 1007.2
20260503173528 16 244 0.0 3.2 0.00 0.00 0.00 52 1007.6
20260503170529 15 199 0.0 3.2 0.00 0.00 0.00 57 1008.2
20260503150528 13 267 1.6 3.2 0.00 0.00 0.00 54 1009.0
20260503130527 10 268 0.0 0.0 0.00 0.00 0.00 58 1010.2
20260503110527 8 284 0.0 3.2 0.00 0.00 0.00 57 1010.1
20260503080526 7 187 0.0 0.0 0.00 0.00 0.00 64 1011.5
20260503070526 6 187 0.0 0.0 0.00 0.00 0.00 65 1011.8
20260503050526 5 187 0.0 0.0 0.00 0.00 0.00 68 1013.0
20260503043526 5 187 0.0 0.0 0.00 0.00 0.00 70 1013.0
20260503040525 5 187 0.0 0.0 0.00 0.00 0.00 70 1013.2
20260503033525 5 187 0.0 0.0 0.00 0.00 0.00 70 1013.4
20260503030525 6 187 0.0 0.0 0.00 0.00 0.00 68 1013.9
20260503023525 6 187 0.0 1.6 0.00 0.00 0.00 66 1014.1
20260503020525 6 187 1.6 1.6 0.00 0.00 0.00 64 1014.0
20260503013525 7 187 0.0 0.0 0.00 0.00 0.00 63 1013.9
20260503010525 7 187 1.6 3.2 0.00 0.00 0.00 63 1013.9
20260503003524 8 190 0.0 1.6 0.00 0.00 0.00 61 1013.9
20260503000524 9 180 0.0 3.2 0.00 0.00 0.00 58 1014.0
20260502230524 9 188 4.8 6.4 0.00 0.00 0.00 52 1014.4
20260502223524 10 198 3.2 6.4 0.00 0.00 0.00 50 1014.6
20260502220524 10 196 3.2 8.0 0.00 0.00 0.00 51 1015.0
20260502213524 10 196 3.2 3.2 0.00 0.00 0.00 50 1015.1
20260502210523 10 202 3.2 3.2 0.00 0.00 0.00 51 1015.2
20260502203523 10 199 4.8 8.0 0.00 0.00 0.00 50 1015.7